Regional Weather Roundup
Issued by NWS

Home | Current Version | Previous Version | Text Only | Print | Product List | Glossary On
Versions: 1 2 3 4 5 6 7 8 9 10 11 12 13 14 15 16 17 18 19 20 21 22 23 24 25 26 27 28 29 30 31 32 33 34 35 36 37 38 39 40 41 42 43 44 45 46 47 48 49 50
457
ASUS44 KLIX 191601
RWRLA
LOUISIANA WEATHER ROUNDUP
NATIONAL WEATHER SERVICE NEW ORLEANS LA
1100 AM CDT SAT APR 19 2014

NOTE: "FAIR" INDICATES FEW OR NO CLOUDS BELOW 12,000 FEET WITH NO
      SIGNIFICANT WEATHER AND/OR OBSTRUCTIONS TO VISIBILITY.
      SKY/WX - SKY CONDITION AND SIGNIFICANT WEATHER.
      TMP - AIR TEMPERATURE.    DP   - DEWPOINT TEMPERATURE.
      RH  - RELATIVE HUMIDITY.  PRES - PRESSURE.
      HX  - HEAT INDEX.         WCI  - WIND CHILL INDEX.

*  THESE STATIONS ARE NOT NWS OR FAA STATIONS AND ARE NOT UNDER
   NWS QUALITY CONTROL.

LAZ040-048-061>063-065-066-069-191700-
SOUTHEAST LOUISIANA

CITY           SKY/WX    TMP DP  RH WIND       PRES   REMARKS
N.O. AUDUBON     N/A     73  52  47 MISG        N/A
N.O. INTL ARPT MOSUNNY   68  55  63 N8        30.18S
N.O. LAKEFRONT SUNNY     65  53  65 NE5       30.18S
N.O. DOWNTOWN* FAIR      66  48  52 N8        30.17F
SLIDELL        SUNNY     70  49  47 NE9       30.16S HAZE
BATON ROUGE    SUNNY     72  52  49 CALM      30.19F
BOOTHVILLE     SUNNY     63  55  75 N9        30.16S
BELLE CHASSE   MOSUNNY   70  50  49 N7        30.16F
BOGALUSA*        N/A     72  51  48 N9        30.18S
GALLIANO*      NOT AVBL
NEW ROADS*     NOT AVBL
GONZALES*      NOT AVBL
HAMMOND*       NOT AVBL
HOUMA*         SUNNY     70  54  56 NE7       30.17S
PORT FOURCHON* SUNNY     68  55  64 NE14      30.18S

$$

LAZ041-044-053-054-191700-
SOUTHWEST LOUISIANA

CITY           SKY/WX    TMP DP  RH WIND       PRES   REMARKS
LAKE CHARLES   SUNNY     70  57  63 VRB5      30.21R
LAFAYETTE      SUNNY     70  52  52 VRB5      30.21R
PATTERSON      MOSUNNY   70  54  56 N6        30.22R
SALT POINT       N/A     72  55  55 VRB3      30.18R
NEW IBERIA     MOSUNNY   71  53  52 VRB6      30.21R
CHENAULT AIRPK SUNNY     70  55  60 CALM      30.23R

$$

LAZ027-028-191700-
CENTRAL LOUISIANA

CITY           SKY/WX    TMP DP  RH WIND       PRES   REMARKS
FORT POLK      SUNNY     70  55  59 E5        30.21F
ALEXANDRIA INT SUNNY     70  32  24 E5        30.21R
ALEXANDRIA     SUNNY     72  52  49 VRB3      30.22R

$$

LAZ001-002-191700-
NORTHWEST LOUISIANA

CITY           SKY/WX    TMP DP  RH WIND       PRES   REMARKS
SHREVEPORT     PTSUNNY   71  56  58 CALM      30.22S
BARKSDALE AFB  SUNNY     69  57  65 SE3       30.23S
DTN SHREVEPORT SUNNY     69  57  65 VRB3      30.23S

$$

LAZ014-016-191700-
NORTHEAST LOUISIANA

CITY           SKY/WX    TMP DP  RH WIND       PRES   REMARKS
MONROE         SUNNY     70  53  54 CALM      30.24R
TALLULAH       SUNNY     71  53  52 N5        30.23R

$$




USA.gov is the U.S. government's official web portal to all federal, state and local government web resources and services.